Regional Weather Roundup
Issued by NWS Grand Forks, ND

Home | Current Version | Previous Version | Graphics & Text | Print | Product List | Glossary On
Versions: 1 2 3 4 5 6 7 8 9 10 11 12 13 14 15 16 17 18 19 20 21 22 23 24 25 26 27 28 29 30 31 32 33 34 35 36 37 38 39 40 41 42 43 44 45 46 47 48 49 50
000
ASUS43 KFGF 291010
RWRFGF
PRAIRIE TO PINES  WEATHER ROUNDUP
NATIONAL WEATHER SERVICE EASTERN NORTH DAKOTA/GRAND FORKS ND
500 AM CDT THU SEP 29 2016

 **SATELLITE DATA USED TO AUGMENT SKY COVER AT AUTOMATED STATIONS**
 *****  WEATHER ACROSS EASTERN NORTH DAKOTA  *****

CITY           SKY/WX    TMP DP  RH WIND       PRES   REMARKS
GRAND FORKS    PTCLDY    45  42  89 SE3       30.45R
GRAND FRKS AFB NOT AVBL
GRAND FRKS NWS   N/A     43 N/A N/A SE3         N/A
DEVILS LAKE    CLEAR     48  46  93 SE8       30.43R
FARGO          MOCLDY    42  41  96 CALM      30.45R
WAHPETON ARPT  SUNNY     41  39  93 CALM      30.45S
$$

 ***** WEATHER ACROSS CENTRAL AND WESTERN NORTH DAKOTA  *****

CITY           SKY/WX    TMP DP  RH WIND       PRES   REMARKS
BISMARCK       CLEAR     44  42  93 SE7       30.39R
MINOT          CLEAR     45  43  93 SE8       30.34S
JAMESTOWN      CLEAR     38  38 100 CALM      30.42S FOG
MINOT AFB      NOT AVBL
GARRISON         N/A     45  44  97 SE6       30.35S
WILLISTON      CLEAR     53  40  61 S8        30.27S
DICKINSON      CLEAR     45  41  86 S15       30.29F
HETTINGER      CLEAR     45  40  82 SE8       30.33F
$$

 *****  OTHER AIRPORT OBSERVATIONS IN OUR AREA  *****

CITY           SKY/WX    TMP DP  RH WIND       PRES   REMARKS
WALHALLA       FAIR      37  37 100 CALM      30.45R
GRAFTON AIRPOR FAIR      43  43 100 E5        30.47R
VALLEY CITY AR FAIR      43  43 100 S3        30.45S
CANDO          FAIR      41  41 100 SE6       30.44S
CAVALIER APRT    N/A     41  41 100 CALM      30.45R FOG
GWINNER        CLOUDY    41  41 100 CALM      30.44S VSB 1/4
SHEYENNE NWR     N/A     39  38  97 CALM      29.95S
ROLLA          FAIR      45  45 100 S7        30.42S
 ***** THE ABOVE OBSERVATIONS ARE NON NWS ARE NOT QUALITY
       CONTROLLED AND MAY MIS-REPORT RAIN FOR SNOW...
$$

  *****  WEATHER ACROSS NORTHERN MINNESOTA  *****

CITY           SKY/WX    TMP DP  RH WIND       PRES   REMARKS
FLAG ISLAND    CLOUDY    55  46  71 CALM      30.47R
WARROAD        CLOUDY    50  46  87 CALM      30.49R
ROSEAU         CLOUDY    50  45  81 CALM      30.48R
HALLOCK        PTCLDY    45  43  93 E5        30.45S
THF RVR FALLS  CLOUDY    49  47  93 E5        30.47S
BAUDETTE       CLOUDY    49  48  97 CALM      30.49R
WASKISH        CLOUDY    50  48  93 CALM      30.48R
CROOKSTON      CLOUDY    50  46  87 CALM      30.47R
STEPHEN NDAWN    N/A     45  45 100 CALM        N/A
GREENBUSH NDAW   N/A     46  46 100 E1          N/A
$$
  *****  WEATHER ACROSS CENTRAL AND WEST MINNESOTA  *****

CITY           SKY/WX    TMP DP  RH WIND       PRES   REMARKS
FOSSTON        CLOUDY    43  41  93 E3        30.48R
BEMIDJI        CLOUDY    49  47  93 CALM      30.47R
PARK RAPIDS    CLOUDY    50  45  83 CALM      30.46R
ELBOW LAKE     PTSUNNY   49  46  87 SE5       30.45S
WADENA         CLOUDY    48  46  93 NE3       30.45S
DETROIT LAKES  CLEAR     45  45 100 CALM      30.47R
MOORHEAD       CLEAR     43  41  93 CALM      30.46R
FERGUS FALLS   CLEAR     46  43  87 E3        30.47S
MORRIS MN      MOCLDY    48  45  87 E6        30.44R
STAPLES        CLOUDY    50  48  93 CALM      30.45S
$$
  *****  WEATHER ELSEWHERE ACROSS MINNESOTA  *****

CITY           SKY/WX    TMP DP  RH WIND       PRES   REMARKS
DULUTH         CLOUDY    52  50  93 NE5       30.45R
INTRNTL FALLS  CLOUDY    52  49  89 CALM      30.48R
ELY            CLOUDY    52  50  93 CALM      30.47R
CLOQUET        CLOUDY    52  48  87 CALM      30.45S
WHEATON        NOT AVBL
BRAINERD       CLOUDY    52  51  97 CALM      30.45S
HIBBING        CLOUDY    50  50 100 CALM      30.47R
ALEXANDRIA     MOCLDY    50  46  86 SE5       30.46R
SAINT CLOUD    CLEAR     43  43 100 N3        30.44R
MINNEAPOLIS    PTCLDY    49  46  90 N8        30.42R
$$

  *****  WEATHER ACROSS SOUTH DAKOTA  *****

CITY           SKY/WX    TMP DP  RH WIND       PRES   REMARKS
SIOUX FALLS    CLOUDY    41  40  96 CALM      30.43R
BROOKINGS      CLEAR     37  36  96 CALM      30.43R
WATERTOWN      CLOUDY    43  40  89 CALM      30.43R
HURON          CLOUDY    37  37 100 CALM      30.42R
SISSETON         N/A     36  35  96 CALM      30.44R
ABERDEEN       CLOUDY    38  35  89 N3        30.43R
MITCHELL       CLOUDY    39  39 100 CALM      30.42S
PIERRE         CLEAR     41  39  93 SE5       30.38R
MOBRIDGE       CLEAR     47  43  86 SE7       30.36S
RAPID CITY     CLEAR     41  34  76 SE5       30.32S
$$

  *****  SOME WEATHER IN NEARBY STATES *****

CITY           SKY/WX    TMP DP  RH WIND       PRES   REMARKS
GLASGOW MT     CLEAR     56  48  74 E16       30.12F
GREAT FALLS MT CLEAR     48  43  82 S5        30.12S
CHEYENNE WY    CLOUDY    49  37  63 S6        30.39F
SCOTTSBLUFF NE CLEAR     48  39  71 E10       30.35S
OMAHA NE       CLEAR     47  43  86 N7        30.37S
DES MOINES IA  CLEAR     53  50  89 N8        30.33R
DAVENPORT IA   CLEAR     52  49  89 N14       30.22S
CHICAGO IL     CLOUDY    62  56  80 NE15G29   30.09R
EAU CLAIRE WI  CLEAR     45  45 100 CALM      30.38R
LA CROSSE WI   CLEAR     52  50  93 N7        30.36R
$$

  *****  SOME NATIONAL WEATHER *****

CITY           SKY/WX    TMP DP  RH WIND       PRES   REMARKS
LA GUARDIA NY  CLOUDY    62  55  77 NE24G31   30.30R
RALEIGH NC     TSTM      66  64  93 VRB3      29.95S
ATLANTA GA     CLEAR     61  51  70 NW9       29.94R
NEW ORLEANS LA PTCLDY    75  70  84 W6        30.01R
OKLAHOMA CITY  PTCLDY    56  48  74 NE12      30.28R
ALBUQUERQUE NM CLOUDY    65  34  31 NW8       30.35S
SALT LAKE CITY MOCLDY    63  50  62 S8        30.17S
LOS ANGELES CA PTCLDY    70  63  78 E5        29.96R
BOISE ID       PTCLDY    75  37  25 SE13      29.92S
SEATTLE WA     PTCLDY    53  44  71 NE8       30.05S
$$

*** WEATHER ACROSS MANITOBA...SASKATCHEWAN AND ONTARIO ***
                ***ONTARIO***

CITY           SKY/WX    TMP DP  RH WIND       PRES   REMARKS
GERALDTON      CLOUDY    50  48  93 CALM      30.48R
THUNDER BAY    MOCLDY    48  48 100 W3        30.47R
SIOUX LOOKOUT  CLOUDY    50  48  93 CALM      30.50R
TORONTO        MOCLDY    61  54  77 E17G26    30.23R
BIG TROUT LK   PTCLDY    45  43  93 W3        30.46R
PICKLE LAKE    NOT AVBL
DRYDEN         CLOUDY    50  50 100 VRB2      30.50R
KENORA         CLOUDY    52  48  87 E5        30.49R
$$
                *** MANITOBA***

CITY           SKY/WX    TMP DP  RH WIND       PRES   REMARKS
BRANDON        CLEAR     39  37  93 E6        30.40S
DAUPHIN        MOCLDY    43  43 100 VRB2      30.38F
ISLAND LAKE    NOT AVBL
PILOT MOUND      N/A     41  39  93 SE6         N/A
THE PAS        CLOUDY    50  39  66 SE3       30.39F
THOMPSON       CLEAR     30  28  93 CALM      30.42R
WINNIPEG       CLEAR     43  41  93 SE6       30.45S
LYNN LAKE      CLEAR     34  32  93 SW6       30.36R
CHURCHILL      CLEAR     39  32  75 W8        30.31R
GILLAM         CLEAR     36  32  87 SW5       30.42R
$$
                ***SASKATCHEWAN***

CITY           SKY/WX    TMP DP  RH WIND       PRES   REMARKS
ESTEVAN        PTCLDY    43  43 100 SE7       30.28F
KINDERSLEY     PTCLDY    41  39  93 NE8       30.18S
LLOYDMINSTER   CLOUDY    45  39  81 E7        30.23F
PRINCE ALBERT  MOCLDY    48  43  81 E10       30.28F
REGINA         MOCLDY    54  43  66 SE10      30.22R
YORKTON        MOCLDY    48  43  81 SE7       30.31S
N. BATTLEFORD  PTCLDY    45  37  76 E6        30.25F
LA RONGE       MOCLDY    41  36  81 CALM      30.32S
SASKATOON      MOCLDY    45  45 100 N7        30.23F
SWIFT CURRENT  CLEAR     46  43  87 E12       30.13F
$$
NOTE: THESE ARE AUTOMATED STATIONS WITH LIMITED QUALITY CONTROL
      "FAIR" INDICATES FEW OR NO CLOUDS BELOW 12,000 FEET WITH NO
      SIGNIFICANT WEATHER AND/OR OBSTRUCTIONS TO VISIBILITY.
      SKY/WX - SKY CONDITION AND SIGNIFICANT WEATHER.
      TMP - AIR TEMPERATURE.    DP   - DEWPOINT TEMPERATURE.
      RH  - RELATIVE HUMIDITY.  PRES - PRESSURE.
      HX  - HEAT INDEX.         WCI  - WIND CHILL INDEX.
$




USA.gov is the U.S. government's official web portal to all federal, state and local government web resources and services.